Погода Троицкое

Погода Троицкое : погода сейчас, прогноз погоды и архив. Всё, что Вы хотите узнать о погоде Троицкое!

Хотите узнать прогноз погоды Троицкое? Тогда Вам сюда: Погода Троицкое

Поиск расширенной информации на нашем сайте:

Другие новости

Новости СМИ2

Главная страница сайта

Новости сайта

03.07.2017

Напоминаем, что на нашем специализированном сайте Метеоцентр.Азия вы можете получить высокодетализированные автоматические прогнозы погоды по пунктам России, СНГ и мира в авиационном формате (включающие направление и скорость ветра, видимость, явления погоды, количество и форму облачности, нижнюю и верхнюю границу облачности).


Погода Троицкое - сегодня

Время (UTC), дата Ветер
(°,м/с) 
Видим.   Явления Облачность Т
(°С)
Тd
(°С)
f(%) Тe
(°С)
Pmin
(гПа)
dP
(гПа)
Po
(мм)
O2
(г/м3)
Тmin Tmax R s Состояние
почвы
18 23.07.17 200 (Ю) 20000 м  {ливн. осадки}  10/10 600 м кучево-дожд. 
[Cb cap]
+17.7 +16.5 93 +30  996.3  -2.2  744  278           
21 23.07.17 210 (ЮЗ) 20000 м    10/10 600 м кучево-дожд. 
[Cb cap]
+18.1 +17 93 +32  996.5  0.2  745  278  +17.4    16    мокрая 
00 24.07.17 240 (ЮЗ) 20000 м    10/10 600 м кучево-дожд. 
[Cb cap]
+19.9 +17.4 86 +34  996.3  -0.2  744  276           
03 24.07.17 260 (З) 20000 м  {ливн. осадки}  10/10 600 м кучево-дожд. 
[Cb cap]
+20 +18.7 92 +36  995.8  -0.5  744  275           
06 24.07.17 тихо ()   20000 м  {ливн. осадки}  9/6 600 м кучево-дожд., верхняя 
[Cb cap|Ci fib]
+22.9 +18.3 75 +38  994.6  -1.1  743  272           
09 24.07.17 180 (Ю) 20000 м  слаб. ливневой дождь, в посл. час гроза  10/10 600 м кучево-дожд. 
[Cb calv]
+18.8 +16.5 86 +32  995  0.3  743  277    +24.9  0.3     
12 24.07.17 060 (СВ) 20000 м  в посл. час гроза{ливн. осадки}  10/10 600 м кучево-дожд. 
[Cb calv]
+17.2 +14.8 86 +26  996.6  1.5  745  279           
15 24.07.17 060 (СВ) 20000 м    10/10 600 м кучево-дожд. 
[Cb calv]
+15.8 +13.5 86 +22  996.3  -0.4  744  281           
18 24.07.17 050 (СВ) 20000 м    10/10 600 м 
[]
+14.7 +13.3 91 +21  996.3  0.1  744  282           
21 24.07.17 060 (СВ) 20000 м    10/10 600 м кучево-дожд. 
[Cb calv]
+14.7 +12.5 87 +20  997.5  1.2  745  282  +14.4    0.5    влажная 
00 25.07.17 020 (С) 20000 м    10/10 600 м кучево-дожд. 
[Cb cap]
+16.2 +13 81 +24  998.4  0.9  746  281           
03 25.07.17 070 (В) 20000 м    9/9 600 м кучево-дожд. 
[Cb cap]
+18.8 +13.3 70 +26  998.5  0.1  746  279           
06 25.07.17 080 (В) 20000 м    10/6 600 м кучево-дожд., верхняя 
[Cb cap|Ci sp]
+18.6 +13.8 74 +27  999  0.5  746  279           
09 25.07.17 100 (В) 20000 м  в посл. час ливневой дождь  10/10 600 м кучево-дожд. 
[Cb cap]
+17.2 +14.4 84 +27  1000.3  1.2  747  280    +19.6  0.0     
12 25.07.17 180 (Ю) 20000 м  {ливн. осадки}  10/10 600 м кучево-дожд. 
[Cb cap]
+14.4 +13.3 93 +21  1001.7  1.4  748  284           
15 25.07.17 тихо ()   20000 м    10/10 600 м кучево-дожд. 
[Cb cap]
+14.2 +13.2 94 +20  1002.6  749  284           
18 25.07.17 100 (В) 10 км  слаб. ливневой дождь  10/10 600 м кучево-дожд. 
[Cb cap]
+14.2 +13.2 94 +21  1003.5  0.9  750  284           
21 25.07.17 140 (ЮВ) 20000 м  {ливн. осадки}  3/3 600 м 
[Sc diur, vesp]
+13.2 +12 92 +18  1005.1  1.6  751  286  +12.5      влажная 
00 26.07.17 090 (В) 20000 м  {ливн. осадки}  8/3 600 м средняя 
[Cu med, cong|Ac trans]
+18.1 +13.4 74 +26  1006.1  752  281           
03 26.07.17 350 (С) 20000 м    3/3 600 м 
[Cu med, cong]
+21.2 +13 59 +27  1006.5  0.4  752  279           
06 26.07.17 240 (ЮЗ) 20000 м    3/3 600 м 
[Cu med, cong]
+22.5 +13.2 56 +28  1006.5  752  277           
12 26.07.17 190 (Ю) 20000 м    ясно 
+16.1 +14.6 91 +25  1007.7  0.9  753  283           
15 26.07.17 190 (Ю) 20000 м    ясно 
+15.5 +14.1 91 +23  1008.7  1.1  754  284           
18 26.07.17 180 (Ю) 20000 м    ясно 
+15.6 +14 90 +23  1008.8  -0.4  753  284           
21 26.07.17 190 (Ю) 20000 м    3/3 600 м 
[Sc diur, vesp]
+17.2 +14.8 86 +25  1009  0.7  754  283  +15.5        влажная 
Время (UTC), дата Ветер
(°,м/с) 
Видим.   Явления Облачность Т
(°С)
Тd
(°С)
f(%) Тe
(°С)
Pmin
(гПа)
dP
(гПа)
Po
(мм)
O2
(г/м3)
Тmin Tmax R s Состояние
почвы

Для получения пояснительной информации подведите курсор к названию столбца.

ПОГОДА Троицкое - архив

Всё, что Вы хотите узнать о погоде Троицкое - удобно и подробно!

Выберите нужную дату (начиная с 1 января 2015* года) и нажмите кнопку "Найти".
Будут отображены архивные сводки погоды по пункту Троицкое, начиная с указанной даты.


Отображать данные в формате CSV (для использования в таблицах Excel)


Внимание! Наш архив погоды предназначен исключительно для личного некоммерческого использования в познавательных целях. Если Вам необходимы официальные справки о состоянии погоды (для производственных, юридических, коммерческих и т.п. целей), обращайтесь в органы Росгидромета.

*Примечание: данная дата относится к архиву по метеостанциям СССР (Россия, СНГ, Балтия).
Архив по метеостанциям Зарубежной Европы и Азии (кроме Китая) хранится 10 дней, по другим регионам земного шара (Китай, Африка, Америка, Австралия, Океания) - 1 день.

Троицкое - район местоположения метеостанции


Название, широта, долгота, высота метеостанции:
Троицкое 49.4°ш. 136.6°д. 33 м над ур. моря [Российская Федерация]

Дополнительная информация

В oтличие oт бoльшинства пoгoдных сайтoв мы публикуем пoдрoбную метеoинфoрмацию в детальнoм прoфессиoнальнoм фoрмате.

Характеристики температуры и влажнoсти вoздуха измеряются на высoте 2 м в тени вдали oт зданий и деревьев.
Скoрoсть ветра измеряется на высoте 10 м (на урoвне рoста челoвека скoрoсть ветра ниже в 1.5-2 раза). Если метеoстанция нахoдится в гoрoде или в лесу, тo скoрoсть ветра занижена на 2-4 м/с пo сравнению с oткрытым местoм. Скoрoсть ветра над акватoриями крупных рек и oзёр, а также на вершинах хoлмoв на 2-5 м/с выше, чем в oбычных услoвиях.
Атмoсфернoе давление в разных тoчках местнoсти мoжет значительнo oтличаться oт давления на метеoстанции, в зависимoсти oт услoвий рельефа (при пoдъёме на 10 м давление пoнижается примернo на 1 мм рт.ст.).